CW4629 Weather Reports


time (UTC)temp
C
wind
direction
speed
KPH
gust
KPH
rain 1hr
cm
rain 24hr
cm
rain mn
cm
humidity
%
barometer
mb
20260504000523 26 238 1.6 6.4 0.00 0.00 0.00 17 1010.3
20260503235622 26 53 3.2 9.7 0.00 0.00 0.00 18 1009.8
20260503233622 26 123 8.0 22.5 0.00 0.00 0.00 18 1010.0
20260503232640 26 115 12.9 22.5 0.00 0.00 0.00 17 1009.9
20260503231639 27 140 19.3 38.6 0.00 0.00 0.00 14 1009.6
20260503230637 28 111 8.0 16.1 0.00 0.00 0.00 13 1009.0
20260503224738 28 175 4.8 8.0 0.00 0.00 0.00 13 1008.8
20260503223821 29 127 4.8 6.4 0.00 0.00 0.00 12 1008.9
20260503222840 30 147 6.4 8.0 0.00 0.00 0.00 12 1009.0
20260503221923 30 145 0.0 1.6 0.00 0.00 0.00 12 1009.2
20260503220924 30 149 4.8 8.0 0.00 0.00 0.00 11 1009.5
20260503215940 30 204 8.0 11.3 0.00 0.00 0.00 11 1009.5
20260503214922 30 157 4.8 6.4 0.00 0.00 0.00 11 1009.8
20260503213924 30 292 1.6 3.2 0.00 0.00 0.00 10 1010.1
20260503212921 30 225 1.6 3.2 0.00 0.00 0.00 11 1010.4
20260503211940 31 267 6.4 11.3 0.00 0.00 0.00 11 1010.6
20260503210938 31 203 9.7 14.5 0.00 0.00 0.00 11 1010.7
20260503205921 31 208 9.7 17.7 0.00 0.00 0.00 11 1011.1
20260503204940 31 201 4.8 8.0 0.00 0.00 0.00 11 1011.1
20260503204021 30 337 3.2 4.8 0.00 0.00 0.00 11 1011.5
20260503203121 32 159 8.0 12.9 0.00 0.00 0.00 10 1011.7
20260503203022 31 201 8.0 11.3 0.00 0.00 0.00 11 1011.7
20260503202039 30 284 0.0 3.2 0.00 0.00 0.00 11 1011.9
20260503201124 30 303 1.6 6.4 0.00 0.00 0.00 12 1012.0
20260503200137 30 174 6.4 12.9 0.00 0.00 0.00 12 1012.2
20260503195139 30 205 4.8 8.0 0.00 0.00 0.00 11 1012.5
20260503195040 30 225 6.4 8.0 0.00 0.00 0.00 11 1012.6
20260503194124 30 252 3.2 9.7 0.00 0.00 0.00 11 1012.8
20260503193137 31 195 0.0 3.2 0.00 0.00 0.00 11 1012.9
20260503192124 30 179 8.0 11.3 0.00 0.00 0.00 11 1013.1
20260503191122 30 116 3.2 4.8 0.00 0.00 0.00 10 1013.2
20260503190141 30 331 1.6 4.8 0.00 0.00 0.00 11 1013.3
20260503185139 28 106 4.8 6.4 0.00 0.00 0.00 12 1013.7
20260503184222 28 211 4.8 8.0 0.00 0.00 0.00 12 1013.9
20260503183321 28 268 3.2 6.4 0.00 0.00 0.00 13 1014.2
20260503181422 27 232 6.4 8.0 0.00 0.00 0.00 14 1014.6
20260503180437 26 283 0.0 3.2 0.00 0.00 0.00 13 1014.9
20260503174540 27 199 1.6 6.4 0.00 0.00 0.00 14 1015.1
20260503173539 26 348 1.6 3.2 0.00 0.00 0.00 15 1015.4
20260503172521 25 202 3.2 4.8 0.00 0.00 0.00 15 1015.7
20260503171522 26 214 3.2 6.4 0.00 0.00 0.00 16 1015.9
20260503170522 25 161 1.6 4.8 0.00 0.00 0.00 17 1016.0
20260503150522 19 360 0.0 0.0 0.00 0.00 0.00 26 1017.4
20260503100122 13 337 1.6 3.2 0.00 0.00 0.00 27 1016.4
20260503081021 16 11 3.2 6.4 0.00 0.00 0.00 21 1016.8
20260503072137 17 351 4.8 8.0 0.00 0.00 0.00 22 1016.7
20260503071137 17 337 0.0 1.6 0.00 0.00 0.00 22 1016.7
20260503070221 17 337 1.6 6.4 0.00 0.00 0.00 21 1016.8
20260503054429 20 337 0.0 0.0 0.00 0.00 0.00 16 1016.0
20260503053429 20 315 3.2 4.8 0.00 0.00 0.00 15 1015.9
20260503053346 20 354 1.6 4.8 0.00 0.00 0.00 15 1015.9
20260503052330 21 337 3.2 4.8 0.00 0.00 0.00 13 1015.7
20260503051428 21 292 3.2 4.8 0.00 0.00 0.00 14 1015.6
20260503045445 21 292 1.6 1.6 0.00 0.00 0.00 14 1015.6
20260503043528 21 331 0.0 3.2 0.00 0.00 0.00 15 1015.3
20260503041528 21 315 0.0 0.0 0.00 0.00 0.00 16 1015.2
20260503040548 21 315 0.0 0.0 0.00 0.00 0.00 15 1015.1
20260503035545 21 315 0.0 0.0 0.00 0.00 0.00 14 1014.9
20260503034627 22 315 0.0 0.0 0.00 0.00 0.00 15 1014.8
20260503033647 22 315 0.0 0.0 0.00 0.00 0.00 14 1014.6
20260503032645 23 315 0.0 0.0 0.00 0.00 0.00 12 1014.5
20260503031728 23 315 0.0 0.0 0.00 0.00 0.00 12 1014.3
20260503030745 24 315 0.0 0.0 0.00 0.00 0.00 11 1014.3
20260503025730 24 360 1.6 4.8 0.00 0.00 0.00 10 1014.1
20260503023745 25 324 3.2 4.8 0.00 0.00 0.00 9 1013.8
20260503021728 26 307 9.7 12.9 0.00 0.00 0.00 10 1013.6
20260503015729 26 295 6.4 9.7 0.00 0.00 0.00 10 1013.5
20260503014746 27 294 6.4 11.3 0.00 0.00 0.00 9 1013.6
20260503013828 27 291 6.4 9.7 0.00 0.00 0.00 9 1013.6
20260503010945 28 249 8.0 14.5 0.00 0.00 0.00 8 1013.3
20260503004928 30 247 3.2 4.8 0.00 0.00 0.00 6 1013.4
20260503002948 30 112 0.0 0.0 0.00 0.00 0.00 6 1013.6
20260503001928 29 141 0.0 3.2 0.00 0.00 0.00 7 1013.5
20260503000929 30 102 4.8 8.0 0.00 0.00 0.00 6 1013.6